[[{"header":{"parameterUnit":"m.s-1","parameterCategory":1,"la1":30.2991,"la2":30.254,"lo1":-89.0895,"lo2":-89.0444,"dy":0.0017,"dx":0.0017,"nx":28,"ny":28,"refTime":"2024-04-17T09:00:00:Z","depth":0,"parameterNumber":2,"parameterNumberName":"U-component_of_WINDS"},"data":[0,0,0,0,0,0,0,0,0,0,0,0,0,0,0,0,0,0,0,0,0,0,0,0,0,0,0,0,0,0,0,0,0,0,0,0,0,0,0,0,0,0,0,0,0,0,0,0,0,0,0,0,0,0,0,0,0,0,-3.6576,-3.6575,0,-3.6505,-3.6504,-3.6503,-3.6428,-3.6427,-3.6426,-3.6425,-3.6348,-3.6347,-3.6346,0,0,0,0,0,0,0,0,0,0,0,0,0,-3.6642,-3.6641,-3.6576,-3.6575,-3.6574,-3.6505,-3.6504,-3.6503,-3.6428,-3.6427,-3.6425,-3.6424,-3.6349,-3.6347,-3.6346,0,0,0,0,0,0,0,0,0,0,0,0,0,-3.6597,-3.6641,-3.6576,-3.6528,-3.6523,-3.6505,-3.6504,-3.6503,-3.6428,-3.6427,-3.6425,-3.6424,-3.6349,-3.6347,-3.6346,-3.6368,0,0,-3.6341,-3.634,0,0,0,0,0,0,0,0,-3.6599,-3.6594,-3.6536,-3.6531,-3.6526,-3.6474,-3.6499,-3.6458,-3.6429,-3.6464,-3.6425,-3.6423,-3.6391,-3.6386,-3.6376,-3.6365,-3.6361,-3.6341,-3.634,-3.6339,-3.6339,0,0,0,0,0,0,0,-3.6603,-3.6597,-3.6548,-3.6535,-3.6529,-3.6509,-3.6501,-3.6491,-3.6437,-3.6461,-3.6455,-3.6448,-3.6388,-3.6378,-3.6374,-3.636,-3.6341,-3.634,-3.6339,-3.6338,-3.6362,-3.6364,0,0,0,0,0,0,-3.6613,-3.66,-3.655,-3.6545,-3.656,-3.6509,-3.65,-3.6492,-3.6437,-3.6427,-3.645,-3.6445,-3.6381,-3.6376,-3.6371,-3.6392,-3.6339,-3.6338,-3.6337,-3.6361,-3.6363,-3.6364,0,0,0,0,0,0,-3.6615,-3.661,-3.6553,-3.6571,-3.6562,-3.651,-3.6501,-3.6491,-3.6481,-3.6429,-3.6418,-3.6449,-3.638,-3.6373,-3.6369,-3.6388,-3.6337,-3.6336,-3.6359,-3.6361,-3.6363,-3.6436,0,0,0,0,0,0,-3.6617,-3.6611,-3.6619,-3.6572,-3.6562,-3.6554,-3.6503,-3.6491,-3.6479,-3.6472,-3.6426,-3.6416,-3.6378,-3.6372,-3.6368,-3.6385,-3.6335,-3.6357,-3.636,-3.6363,-3.6431,-3.644,-3.6448,0,0,0,0,0,-3.662,-3.6642,-3.662,-3.6615,-3.6572,-3.6555,-3.6549,-3.6506,-3.6481,-3.6489,-3.6455,-3.6418,-3.6388,-3.6372,-3.6367,-3.6384,-3.6355,-3.6359,-3.6362,-3.6428,-3.6439,-3.6448,0,0,0,0,0,0,-3.6691,-3.6635,-3.661,-3.6618,-3.6592,-3.6542,-3.6551,-3.6519,-3.6498,-3.6493,-3.6438,-3.6428,-3.6431,-3.6407,-3.6392,-3.6402,-3.6366,-3.6369,-3.6418,-3.6427,-3.6436,-3.644,-3.6333,0,0,0,0,0,-3.6708,-3.6701,-3.6651,-3.6663,-3.6651,-3.6604,-3.6595,-3.6564,-3.6534,-3.6523,-3.6488,-3.646,-3.6444,-3.6435,-3.6417,-3.6428,-3.6416,-3.6437,-3.6446,-3.6453,-3.6455,-3.6458,-3.6466,-3.6376,-3.6376,-3.6376,0,0,-3.6742,-3.6711,-3.6709,-3.6676,-3.6653,-3.6645,-3.6595,-3.6589,-3.6582,-3.6521,-3.6516,-3.649,-3.6455,-3.6459,-3.6459,-3.6439,-3.6478,-3.6457,-3.6463,-3.6461,-3.6462,-3.6471,-3.6479,-3.6378,-3.6378,-3.6378,0,0,-3.6801,-3.6777,-3.6783,-3.6761,-3.6726,-3.6694,-3.6696,-3.6652,-3.6633,-3.6627,-3.6581,-3.6572,-3.6546,-3.6522,-3.6507,-3.6558,-3.6522,-3.6553,-3.6596,-3.6599,-3.6606,-3.6612,-3.6629,-3.6636,-3.6556,-3.6556,-3.6557,0,-3.6847,-3.6834,-3.679,-3.6787,-3.6773,-3.672,-3.6725,-3.6705,-3.6666,-3.6658,-3.6637,-3.6603,-3.6575,-3.6573,-3.6585,-3.6575,-3.6574,-3.6558,-3.6609,-3.6615,-3.662,-3.6635,-3.6642,-3.656,-3.656,-3.656,-3.6559,0,-3.6893,-3.6885,-3.6894,-3.6859,-3.6847,-3.6848,-3.6802,-3.6795,-3.6765,-3.6736,-3.673,-3.6696,-3.667,-3.6667,-3.6638,-3.666,-3.6649,-3.662,-3.6582,-3.6633,-3.6646,-3.6652,-3.6566,-3.6565,-3.6563,-3.6562,0,0,-3.6992,-3.6934,-3.6938,-3.6921,-3.6879,-3.6872,-3.687,-3.6846,-3.6841,-3.6816,-3.6812,-3.6792,-3.6765,-3.6748,-3.6715,-3.6719,-3.6759,-3.6688,-3.6687,-3.6701,-3.678,-3.6801,-3.6809,-3.6736,-3.6737,-3.6738,-3.6782,0,-3.7042,-3.7037,-3.6997,-3.7003,-3.6994,-3.6944,-3.6942,-3.6916,-3.6889,-3.6876,-3.6845,-3.6831,-3.6797,-3.6786,-3.6788,-3.6754,-3.6774,-3.675,-3.673,-3.673,-3.6739,-3.6816,-3.6838,-3.6882,-3.6788,-3.6788,-3.6789,0,-3.7099,-3.7079,-3.7084,-3.7043,-3.7038,-3.7037,-3.7012,-3.7002,-3.697,-3.695,-3.6932,-3.6896,-3.689,-3.6856,-3.6846,-3.6831,-3.6821,-3.6803,-3.6804,-3.6799,-3.6762,-3.6812,-3.6895,-3.6901,-3.6797,-3.6796,-3.6796,0,-3.7169,-3.7144,-3.7144,-3.7131,-3.7083,-3.7084,-3.7063,-3.7031,-3.7019,-3.6997,-3.6988,-3.6966,-3.6953,-3.6935,-3.6893,-3.6873,-3.6888,-3.6851,-3.6869,-3.687,-3.6873,-3.6873,-3.6955,-3.687,-3.687,-3.687,-3.6869,0,-3.7228,-3.7233,-3.7175,-3.7174,-3.7178,-3.7132,-3.7137,-3.7112,-3.7083,-3.7076,-3.7031,-3.7025,-3.6971,-3.6959,-3.6926,-3.6922,-3.6917,-3.6899,-3.689,-3.6903,-3.6905,-3.6894,-3.6889,-3.6871,-3.6871,-3.6871,-3.687,0,-3.7307,-3.7268,-3.7264,-3.722,-3.7208,-3.7213,-3.7174,-3.7171,-3.7141,-3.7133,-3.7128,-3.7081,-3.7064,-3.7021,-3.6993,-3.6971,-3.6975,-3.696,-3.6986,-3.698,-3.7001,-3.6999,-3.7077,-3.7084,-3.6996,-3.6997,-3.6998,0,-3.7346,-3.7349,-3.7305,-3.7297,-3.7279,-3.7268,-3.7256,-3.7211,-3.72,-3.7165,-3.7167,-3.7147,-3.7128,-3.7103,-3.7065,-3.7043,-3.7025,-3.7054,-3.7021,-3.7034,-3.7024,-3.7024,-3.7023,-3.7061,-3.7062,-3.7063,-3.7064,0,-3.7419,-3.74,-3.7385,-3.7364,-3.7352,-3.7332,-3.731,-3.7306,-3.7255,-3.7245,-3.7228,-3.7214,-3.7186,-3.7166,-3.7138,-3.7115,-3.7081,-3.7075,-3.7077,-3.7089,-3.7104,-3.7095,-3.7004,-3.7073,-3.7072,-3.7071,-3.7071,-3.707,-3.7478,-3.7478,-3.7447,-3.7432,-3.7411,-3.7392,-3.7387,-3.7357,-3.7343,-3.7317,-3.7291,-3.7276,-3.7244,-3.7204,-3.7184,-3.7171,-3.7153,-3.7157,-3.7158,-3.716,-3.7165,-3.7108,-3.7166,-3.7165,-3.7165,-3.7165,-3.7164,0,-3.7548,-3.7526,-3.7513,-3.7484,-3.7472,-3.7443,-3.7417,-3.7408,-3.7396,-3.737,-3.7353,-3.7333,-3.7314,-3.7275,-3.7252,-3.7249,-3.7232,-3.7244,-3.7243,-3.7238,-3.7183,-3.7182,-3.7258,-3.7258,-3.7258,-3.7258,-3.7258,-3.7258,-3.7583,-3.7582,-3.7559,-3.7546,-3.7523,-3.751,-3.7497,-3.7479,-3.7458,-3.7438,-3.7422,-3.7398,-3.7366,-3.734,-3.732,-3.7309,-3.7302,-3.7319,-3.7303,-3.7251,-3.7242,-3.7234,-3.7233,-3.7318,-3.7318,-3.7359,-3.7359,-3.736]},{"header":{"parameterUnit":"m.s-1","parameterCategory":1,"la1":30.2991,"la2":30.254,"lo1":-89.0895,"lo2":-89.0444,"dy":0.0017,"dx":0.0017,"nx":28,"ny":28,"refTime":"2024-04-17T09:00:00:Z","depth":0,"parameterNumber":3,"parameterNumberName":"V-component_of_WINDS"},"data":[0,0,0,0,0,0,0,0,0,0,0,0,0,0,0,0,0,0,0,0,0,0,0,0,0,0,0,0,0,0,0,0,0,0,0,0,0,0,0,0,0,0,0,0,0,0,0,0,0,0,0,0,0,0,0,0,0,0,2.9811,2.9811,0,2.9791,2.9791,2.9791,2.9806,2.9807,2.9807,2.9808,2.9784,2.9783,2.9782,0,0,0,0,0,0,0,0,0,0,0,0,0,2.9859,2.9858,2.9811,2.9811,2.981,2.9791,2.9791,2.9791,2.9806,2.9807,2.9807,2.9808,2.9785,2.9783,2.9782,0,0,0,0,0,0,0,0,0,0,0,0,0,2.9838,2.9858,2.9811,2.9816,2.9816,2.9791,2.9791,2.9791,2.9806,2.9807,2.9808,2.9809,2.9785,2.9783,2.9781,2.975,0,0,2.9776,2.9775,0,0,0,0,0,0,0,0,2.984,2.9837,2.9815,2.9815,2.9816,2.9802,2.9799,2.9777,2.9805,2.9809,2.9808,2.9809,2.9789,2.9787,2.9781,2.9749,2.9748,2.9776,2.9774,2.9774,2.9773,0,0,0,0,0,0,0,2.9841,2.9838,2.9803,2.9815,2.9815,2.9818,2.9816,2.9795,2.9794,2.9809,2.981,2.9808,2.9789,2.9783,2.978,2.9747,2.9776,2.9774,2.9773,2.9772,2.969,2.9689,0,0,0,0,0,0,2.9842,2.9839,2.9804,2.9802,2.983,2.9816,2.9814,2.9805,2.9794,2.9793,2.9807,2.9809,2.9785,2.9783,2.978,2.9744,2.9774,2.9772,2.9771,2.9691,2.969,2.9689,0,0,0,0,0,0,2.9843,2.9839,2.9804,2.9821,2.9817,2.9814,2.9804,2.9804,2.9798,2.9793,2.9792,2.9801,2.9786,2.9782,2.9758,2.9743,2.9771,2.9769,2.9692,2.9691,2.9689,2.967,0,0,0,0,0,0,2.9845,2.9839,2.9828,2.9821,2.9816,2.9783,2.9803,2.9803,2.9795,2.9797,2.9787,2.9786,2.9787,2.9761,2.9756,2.9741,2.9768,2.9694,2.9692,2.969,2.9672,2.9668,2.9665,0,0,0,0,0,2.9846,2.9822,2.9827,2.9823,2.9802,2.9783,2.978,2.9782,2.9794,2.9782,2.9779,2.9786,2.9745,2.9758,2.9753,2.9737,2.9695,2.9692,2.969,2.9674,2.9669,2.9665,0,0,0,0,0,0,2.9826,2.9821,2.9827,2.98,2.9792,2.9785,2.9771,2.9777,2.9764,2.9767,2.9769,2.9767,2.9741,2.9736,2.9751,2.9707,2.9722,2.9718,2.9711,2.9706,2.9703,2.9705,2.9766,0,0,0,0,0,2.9819,2.9805,2.9801,2.9777,2.9773,2.9772,2.9764,2.9767,2.9758,2.9755,2.975,2.974,2.9725,2.9715,2.9701,2.9671,2.967,2.9658,2.9654,2.9651,2.9648,2.9634,2.9629,2.9681,2.9681,2.9681,0,0,2.9803,2.9799,2.9789,2.9773,2.9767,2.9752,2.9769,2.9752,2.9741,2.9752,2.9729,2.9725,2.9714,2.9688,2.9675,2.9683,2.9634,2.9648,2.9646,2.9645,2.9631,2.9626,2.9621,2.9679,2.968,2.968,0,0,2.9767,2.9762,2.9743,2.9737,2.9729,2.9728,2.9724,2.9717,2.9715,2.9693,2.9701,2.9687,2.9661,2.9654,2.9646,2.9609,2.9616,2.9604,2.9585,2.9571,2.9567,2.9563,2.9551,2.9547,2.9601,2.9601,2.9601,0,2.9748,2.9727,2.9731,2.9715,2.9708,2.9718,2.9699,2.9692,2.9679,2.9674,2.9682,2.9651,2.9644,2.9617,2.9608,2.9601,2.9596,2.9606,2.9567,2.9564,2.956,2.9549,2.9544,2.96,2.96,2.96,2.96,0,2.9705,2.969,2.9676,2.9665,2.9656,2.9638,2.9639,2.9629,2.9633,2.9632,2.9609,2.9602,2.9587,2.9581,2.9583,2.9554,2.9559,2.9567,2.9582,2.9554,2.9543,2.9539,2.9598,2.9599,2.9599,2.9599,0,0,2.9656,2.9649,2.9644,2.964,2.9631,2.962,2.9602,2.9589,2.9581,2.9572,2.9557,2.9536,2.9544,2.9536,2.9538,2.9525,2.9498,2.9535,2.9535,2.953,2.9466,2.9461,2.9456,2.9502,2.9501,2.95,2.9468,0,2.9621,2.9592,2.9596,2.9568,2.9555,2.9565,2.9549,2.9542,2.9541,2.9529,2.9527,2.9512,2.9523,2.9519,2.9507,2.9504,2.9485,2.9506,2.9489,2.9488,2.9493,2.945,2.9445,2.9414,2.9464,2.9463,2.9462,0,2.9576,2.9568,2.9539,2.9534,2.9529,2.9515,2.9505,2.9493,2.9485,2.9485,2.9477,2.9482,2.9464,2.9479,2.9454,2.9468,2.9461,2.9459,2.9458,2.9457,2.9474,2.945,2.9404,2.94,2.9455,2.9456,2.9457,0,2.9545,2.9526,2.9507,2.9503,2.9496,2.9487,2.9483,2.9477,2.947,2.946,2.9455,2.9443,2.9436,2.9426,2.9427,2.9438,2.9403,2.9417,2.9402,2.9402,2.9395,2.9396,2.9349,2.9388,2.9389,2.9389,2.9389,0,2.9507,2.9489,2.9493,2.9481,2.9462,2.9466,2.9446,2.9444,2.9439,2.9426,2.9433,2.9421,2.9423,2.941,2.9411,2.9391,2.9388,2.9387,2.9388,2.9387,2.9388,2.9384,2.9386,2.9387,2.9388,2.9388,2.9388,0,2.9469,2.9471,2.9451,2.9448,2.9446,2.9432,2.9429,2.9418,2.9417,2.9401,2.9398,2.9397,2.9383,2.9383,2.9366,2.9367,2.9344,2.9346,2.9347,2.9348,2.9333,2.9335,2.9283,2.9277,2.9319,2.9319,2.9318,0,2.9445,2.9432,2.9428,2.9421,2.9418,2.9406,2.9399,2.9402,2.9395,2.9386,2.9376,2.9363,2.9353,2.9331,2.9328,2.9316,2.9319,2.9301,2.9317,2.9317,2.932,2.9321,2.9321,2.9299,2.9298,2.9298,2.9297,0,2.9403,2.9405,2.9395,2.9386,2.9378,2.9371,2.9364,2.9358,2.936,2.9351,2.9338,2.9331,2.9315,2.9303,2.9291,2.9287,2.9293,2.9293,2.9289,2.9289,2.9291,2.9291,2.934,2.9294,2.9294,2.9294,2.9295,2.9295,2.9372,2.9362,2.9358,2.9347,2.9343,2.9337,2.9327,2.9326,2.9315,2.9304,2.9306,2.9292,2.9285,2.9271,2.9266,2.9254,2.926,2.9254,2.9253,2.9252,2.9251,2.9292,2.9252,2.9252,2.9252,2.9252,2.9252,0,2.9332,2.933,2.932,2.9312,2.9303,2.931,2.9304,2.9296,2.9284,2.9278,2.9269,2.9254,2.9242,2.9239,2.9227,2.9219,2.9221,2.9216,2.9217,2.9216,2.9245,2.9251,2.9214,2.9214,2.9214,2.9214,2.9214,2.9214,2.931,2.9293,2.9295,2.9276,2.9274,2.9261,2.9257,2.9251,2.9247,2.9231,2.9222,2.922,2.9215,2.9204,2.9193,2.9192,2.9188,2.9182,2.9182,2.921,2.9214,2.9218,2.9223,2.9181,2.9181,2.9154,2.9154,2.9154]}]]